Nueva Hesperides International Airport

Jump to: basic info | weather | frequencies | runways | comments

Related pages: nearby airports | nearby navaids | notams | map

Basic information (top)

Codes: STY SUSO
Location: lon -31.438499, lat -57.985298, elev 187 ft / 57 m msl
Status: medium_airport

Weather (top)

Current conditions (rec'd 2015/02/28 12:00Z):

SUSO 281200Z 12008KT 9999 FEW027 20/15 Q1017

Airport forecast (rec'd 2015/02/28 12:00Z):

TAF SUSO 281100Z 2812/0112 09005KT CAVOK TX30/2819Z TN17/0109Z 
      BECMG 2814/2816 06013KT 9999 FEW030 SCT200 PROB30 
      TEMPO 0100/0112 3000 TSRA SCT023 FEW040CB OVC060

Frequencies (top)

Verify before use: may be inaccurate or out of date.

RDO: 286 MHz (SALTO RDO)
TWR: 118.8 MHz (SALTO TWR)

Runways (top)

05/23: 5,210 x 148 ft (1,588 x 45 m) — paved — lighted

13/31: 2,461 x 164 ft (750 x 50 m) — grass — not lighted

Latest comments (top)

No comments yet for Nueva Hesperides International Airport

More... (top)

See also NOTAMs and nearby airports and navaids, or visit the Nueva Hesperides International Airport page at the main OurAirports website..